FW7711 Weather Reports


time (UTC)temp
F
wind
direction
speed
knots
gust
knots
rain 1hr
in
rain 24hr
in
rain mn
in
humidity
%
barometer
mb
20240723211556 76 0.0 0.0 0.00 0.24 0.00 70 1018.0
20240723210101 76 0.0 0.0 0.00 0.24 0.00 72 1017.8
20240723204601 76 0.0 0.0 0.00 0.24 0.00 71 1017.8
20240723203100 76 0.0 0.0 0.00 0.24 0.00 70 1017.5
20240723201556 77 0.0 0.0 0.00 0.24 0.00 73 1017.6
20240723200056 77 0.0 0.0 0.00 0.24 0.00 70 1017.6
20240723194556 76 0.0 0.0 0.00 0.24 0.00 76 1017.4
20240723193059 76 0.0 0.0 0.00 0.24 0.00 76 1017.5
20240723191559 75 0.0 0.0 0.00 0.24 0.00 74 1017.3
20240723190058 75 0.0 0.0 0.00 0.24 0.00 75 1017.5
20240723184601 76 0.0 0.0 0.00 0.24 0.00 75 1017.6
20240723183058 75 0.0 0.0 0.00 0.24 0.00 79 1017.6
20240723181556 75 0.0 0.0 0.00 0.24 0.00 78 1017.6
20240723180059 73 0.0 0.0 0.00 0.24 0.00 82 1017.7
20240723174608 73 0.0 0.0 0.00 0.24 0.00 83 1017.7
20240723173059 72 0.0 0.0 0.00 0.24 0.00 84 1017.7
20240723171606 72 0.0 0.0 0.00 0.24 0.00 87 1017.6
20240723170110 70 0.0 0.0 0.00 0.24 0.00 89 1017.7
20240723164601 68 0.0 0.0 0.00 0.24 0.00 93 1017.6
20240723163059 67 0.0 0.0 0.00 0.24 0.00 93 1017.4
20240723161558 67 0.0 0.0 0.00 0.24 0.00 95 1017.8
20240723160056 66 0.0 0.0 0.00 0.24 0.00 95 1018.1
20240723154608 66 0.0 0.0 0.00 0.24 0.00 95 1018.2
20240723153058 66 0.0 0.0 0.00 0.24 0.00 96 1018.1
20240723151602 65 0.0 0.0 0.00 0.24 0.00 96 1017.8
20240723150058 66 0.0 0.0 0.00 0.24 0.00 97 1017.8
20240723144557 65 0.0 0.0 0.00 0.24 0.00 97 1017.7
20240723143058 65 0.0 0.0 0.00 0.24 0.00 97 1017.6
20240723141556 65 0.0 0.0 0.00 0.24 0.00 97 1017.6
20240723140057 65 0.0 0.0 0.00 0.24 0.00 97 1017.7
20240723134559 65 0.0 0.0 0.00 0.24 0.00 97 1017.4
20240723133102 66 0.0 0.0 0.00 0.24 0.00 98 1017.5
20240723131601 66 0.0 0.0 0.00 0.24 0.00 97 1017.1
20240723130105 66 0.0 0.0 0.00 0.24 0.00 98 1016.9
20240723124558 66 0.0 0.0 0.00 0.24 0.00 98 1016.9
20240723123057 65 0.0 0.0 0.00 0.24 0.00 97 1016.8
20240723121558 65 0.0 0.0 0.00 0.24 0.00 98 1016.4
20240723120058 65 0.0 0.0 0.00 0.24 0.00 98 1016.4
20240723114557 65 0.0 0.0 0.00 0.24 0.00 98 1016.7
20240723113059 65 0.0 0.0 0.00 0.24 0.00 97 1016.5
20240723111600 65 0.0 0.0 0.00 0.24 0.00 97 1016.3
20240723110112 65 0.0 0.0 0.00 0.24 0.00 97 1016.1
20240723104605 65 0.0 0.0 0.00 0.24 0.00 97 1016.1
20240723103115 65 0.0 0.0 0.00 0.24 0.00 97 1016.4
20240723101556 65 0.0 0.0 0.00 0.24 0.00 97 1016.5
20240723100058 65 0.0 0.0 0.00 0.24 0.00 98 1016.3
20240723094603 65 0.0 0.0 0.00 0.24 0.00 97 1016.1
20240723093102 64 0.0 0.0 0.00 0.24 0.00 97 1015.8
20240723091601 64 0.0 0.0 0.00 0.24 0.00 97 1016.0
20240723090056 64 0.0 0.0 0.00 0.24 0.00 97 1015.8
20240723084600 64 0.0 0.0 0.00 0.24 0.00 97 1015.6
20240723083058 65 0.0 0.0 0.00 0.24 0.00 97 1015.6
20240723081556 65 0.0 0.0 0.00 0.24 0.00 97 1015.5
20240723080058 65 0.0 0.0 0.00 0.24 0.00 97 1015.5
20240723074558 65 0.0 0.0 0.00 0.24 0.00 97 1015.6
20240723073058 66 0.0 0.0 0.00 0.24 0.00 97 1015.5
20240723071557 66 0.0 0.0 0.00 0.24 0.00 97 1015.4
20240723070101 66 0.0 0.0 0.00 0.24 0.00 97 1015.5
20240723064607 66 0.0 0.0 0.00 0.24 0.00 97 1015.5
20240723063101 66 0.0 0.0 0.00 0.24 0.00 97 1015.4
20240723061601 66 0.0 0.0 0.00 0.24 0.00 97 1015.4
20240723060101 65 0.0 0.0 0.00 0.24 0.00 97 1015.5
20240723054558 65 0.0 0.0 0.00 0.24 0.00 97 1015.4
20240723053101 65 0.0 0.0 0.00 0.24 0.00 96 1015.3
20240723051608 65 0.0 0.0 0.00 0.24 0.00 96 1015.4
20240723050059 65 0.0 0.0 0.00 0.24 0.00 96 1015.4
20240723044603 65 0.0 0.0 0.00 0.24 0.24 96 1015.3
20240723043058 65 0.0 0.0 0.00 0.24 0.24 96 1015.3
20240723041603 66 0.0 0.0 0.00 0.24 0.24 96 1015.5
20240723040105 66 0.0 0.0 0.00 0.24 0.24 96 1015.3
20240723034605 66 0.0 0.0 0.00 0.24 0.24 96 1015.4
20240723033101 66 0.0 0.0 0.00 0.24 0.24 96 1015.3
20240723031601 66 0.0 0.0 0.00 0.24 0.24 96 1015.2
20240723030103 67 0.0 0.0 0.00 0.24 0.24 96 1015.3
20240723024600 67 0.0 0.0 0.00 0.24 0.24 95 1015.0
20240723023104 67 0.0 0.0 0.00 0.24 0.24 95 1015.0
20240723021611 67 0.0 0.0 0.00 0.24 0.24 95 1015.2
20240723020100 68 0.0 0.0 0.00 0.24 0.24 95 1015.2
20240723014602 68 0.0 0.0 0.00 0.24 0.24 95 1015.2
20240723013127 69 0.0 0.0 0.00 0.24 0.24 95 1015.1
20240723011603 68 0.0 0.0 0.00 0.24 0.24 95 1015.0
20240723010100 68 0.0 0.0 0.00 0.24 0.24 94 1015.1
20240723004600 68 0.0 0.0 0.24 0.24 0.24 93 1015.2
20240723003100 68 0.0 0.0 0.24 0.24 0.24 92 1015.2
20240723001601 69 0.0 0.0 0.24 0.24 0.24 89 1014.6
20240723000057 71 0.0 0.0 0.24 0.24 0.24 85 1014.6
20240722234559 74 0.0 0.0 0.00 0.00 0.00 72 1014.4
20240722233100 77 0.0 0.0 0.00 0.00 0.00 64 1014.7
20240722231600 81 0.0 0.0 0.00 0.00 0.00 70 1014.7
20240722230101 81 0.0 0.0 0.00 0.00 0.00 68 1014.2
20240722224616 81 0.0 0.0 0.00 0.00 0.00 66 1014.2
20240722223100 81 0.0 0.0 0.00 0.00 0.00 66 1014.1
20240722221604 81 0.0 0.0 0.00 0.00 0.00 66 1014.2
20240722220109 82 0.0 0.0 0.00 0.00 0.00 65 1014.1
20240722214625 82 0.0 0.0 0.00 0.00 0.00 64 1014.1
20240722213113 82 0.0 0.0 0.00 0.00 0.00 63 1014.4